Regional Weather Roundup
Issued by NWS Green Bay, WI

Home | Current Version | Previous Version | Graphics & Text | Print | Product List | Glossary Off
Versions: 1 2 3 4 5 6 7 8 9 10 11 12 13 14 15 16 17 18 19 20 21 22 23 24 25 26 27 28 29 30 31 32 33 34 35 36 37 38 39 40 41 42 43 44 45 46 47 48 49 50

000
ASUS43 KGRB 271510
RWRGRB

NORTH-CENTRAL AND NORTHEAST WISCONSIN REGIONAL WEATHER ROUNDUP
NATIONAL WEATHER SERVICE GREEN BAY WI
900 AM CST THU NOV 27 2014

WIZ005-009-010>012-018-019-271600-
NORTH CENTRAL WISCONSIN

CITY           SKY/WX    TMP DP  RH WIND       PRES   REMARKS
IRONWOOD       PTSUNNY    9   3  78 NW10      30.33R WCI  -6
MANITOWISH WTR LGT SNOW  -1  -4  85 NW5       30.31R WCI -11
ARBOR VITAE    SUNNY      4   0  83 N5        30.31R WCI  -5
EAGLE RIVER    SUNNY      5   0  81 NW7       30.29S WCI  -7
LAND O LAKES   SUNNY      7   2  80 NW7       30.29R WCI  -5
RHINELANDER    SUNNY      4   0  83 NW5       30.30R WCI  -5
PHILLIPS       SUNNY     -1  -5  82 W5        30.34S WCI -11
ANTIGO         FLURRIES   6   2  84 NW6       30.30R WCI  -4
TOMAHAWK       SUNNY      4  -1  81 NW5       30.33S WCI  -6
MERRILL        SUNNY      7   1  74 NW7       30.34R WCI  -4
$$

WIZ013-073-271600-
NORTHEAST WISCONSIN

CITY           SKY/WX    TMP DP  RH WIND       PRES   REMARKS
IRON MOUNTAIN  MOSUNNY    8   1  73 NW10      30.29S WCI  -6
MARINETTE      MOSUNNY   12   1  62 N12G20    30.32R WCI  -2
OCONTO         CLOUDY    13   6  73 N10       30.35R WCI   0
$$

WIZ017-030-035>037-045-271600-
CENTRAL WISCONSIN

CITY           SKY/WX    TMP DP  RH WIND       PRES   REMARKS
MEDFORD        SUNNY      3  -2  79 N10       30.34R WCI -12
WAUSAU         SUNNY      9   2  73 NW9       30.34R WCI  -4
MOSINEE        MOSUNNY    9   7  92 NW14      30.35R WCI  -8
MARSHFIELD     MOSUNNY    8   1  73 NW8       30.36R WCI  -4
WISC RAPIDS    CLOUDY    11   3  70 NW13      30.39R WCI  -4
STEVENS POINT  SUNNY     10   4  78 NW10      30.35R WCI  -4
WAUPACA        PTSUNNY   18  10  68 NW9       30.35R WCI   7
SHAWANO        PTSUNNY   15   7  69 N7        30.35R WCI   5
CLINTONVILLE   MOSUNNY   16   7  67 N9        30.34R WCI   4
$$

WIZ038-039-048-051-271600-
FOX VALLEY

CITY           SKY/WX    TMP DP  RH WIND       PRES   REMARKS
NWS GREEN BAY  CLOUDY    16   8  71 N10       30.34R WCI   4
APPLETON       CLOUDY    18  10  73 N13       30.32R WCI   4
OSHKOSH        LGT SNOW  19  13  77 MISG      30.33R
FOND DU LAC    CLOUDY    19  13  77 NW14      30.32R WCI   6
$$

WIZ022-050-052-271600-
EAST CENTRAL WISCONSIN

CITY           SKY/WX    TMP DP  RH WIND       PRES   REMARKS
STURGEON BAY   CLOUDY    16   5  62 N17G25    30.32R WCI   0
MANITOWOC      CLOUDY    18  11  74 N17G25    30.32R WCI   3
SHEBOYGAN      CLOUDY    20  13  74 N13       30.31R WCI   7
$$

LMZ563-521-522-541>543-271600-
LAKESHORE

STATION/POSITION TIME  TEMP    WIND        PRES    VSBY  WAVE
                       AIR SEA DIR/SP/G                  HT/PER
                 (UTC) (F)     (DEG/KT/KT) (MB)    (MI)  (FT/S)
SHEBOYGAN LKSHOR 1500   20 35  340/ 17/ 20 1027.9R
KEWAUNEE LKSHORE 1500   17     340/ 15/ 20 1025.6R
NORTHPORT PIER   1500   19     320/ 19/ 27 1025.7S
N MID LAKE BUOY  1500   20 42  330/ 19/ 25 1025.8R         5/ 5
SISTER BAY LKSHO 1500           10/ 29/ 35   N/A
CHAMBERS ISLAND  1500   16     320/ 20/ 24 1026.8R
MENOMINEE LKSHOR 1500   14     310/ 15/ 20 1027.4R
$$



USA.gov is the U.S. government's official web portal to all federal, state and local government web resources and services.